SCP
0 0 0 0 0 0 0 0 0 0 0 0 0 0 0 0 0 0 0 0 0 0 0 0 0 0 0 0 0 0 0 0 0 0 0 0 0 0 0 0 0 0 0 0
0 0 0 0 0 0 0 0 0 0 0 0 0 0 0 0 0 0 0 0 0 0 0 0 0 0 0 0 0 0 0 0 0 0 0 0 0 0 0 0 0 0 0 0
0 0 0 0 0 0 0 0 0 0 0 0 0 0 0 0 0 0 0 0 0 0 0 0 0 0 0 0 0 0 0 0 0 0 0 0 0 0 0 0 0 0 0 0
0 0 0 0 0 0 0 0 0 0 0 0 0 0 0 0 0 0 0 0 0 0 0 0 0 0 0 0 0 0 0 0 0 0 0 0 0 0 0 0 0 0 0 0
0 0 0 0 0 0 0 0 0 0 0 0 0 0 0 0 0 0 0 0 0 0 0 0 0 0 0 0 0 0 0 0 0 0 0 0 0 0 0 0 0 0 0 0
0 0 0 0 0 0 0 0 0 0 0 0 0 0 0 0 0 0 0 0 0 0 0 0 0 0 0 0 0 0 0 0 0 0 0 0 0 0 0 0 0 0 0 0
0 0 0 0 0 0 0 0 0 0 0 0 0 0 0 0 0 0 0 0 0 0 0 0 0 0 0 0 0 0 0 0 0 0 0 0 0 0 0 0 0 0 0 0
0 0 0 0 0 0 0 0 0 0 0 0 0 0 0 0 0 0 0 0 0 0 0 0 0 0 0 0 0 0 0 0 0 0 0 0 0 0 0 0 0 0 0 0
0 0 0 0 0 0 0 0 0 0 0 0 0 0 0 0 0 0 0 0 0 0 0 0 0 0 0 0 0 0 0 0 0 0 0 0 0 0 0 0 0 0 0 0
0 0 0 0 0 0 0 0 0 0 0 0 0 0 0 0 0 0 0 0 0 0 0 0 0 0 0 0 0 0 0 0 0 0 0 0 0 0 0 0 0 0 0 0
0 0 0 0 0 0 0 0 0 0 0 0 0 0 0 0 0 0 0 0 0 0 0 0 0 0 0 0 0 0 0 0 0 0 0 0 0 0 0 0 0 0 0 0
0 0 0 0 0 0 0 0 0 0 0 0 0 0 0 0 0 0 0 0 0 0 0 0 0 0 0 0 0 0 0 0 0 0 0 0 0 0 0 0 0 0 0 0
0 0 0 0 0 0 0 0 0 0 0 0 0 0 0 0 0 0 0 0 0 0 0 0 0 0 0 0 0 0 0 0 0 0 0 0 0 0 0 0 0 0 0 0
0 0 0 0 0 0 0 0 0 0 0 0 0 0 0 0 0 0 0 0 0 0 0 0 0 0 0 0 0 0 0 0 0 0 0 0 0 0 0 0 0 0 0 0
0 0 0 0 0 0 0 0 0 0 0 0 0 0 0 0 0 0 0 0 0 0 0 0 0 0 0 0 0 0 0 0 0 0 0 0 0 0 0 0 0 0 0 0
0 0 0 0 0 0 0 0 0 0 0 0 0 0 0 0 0 0 0 0 0 0 0 0 0 0 0 0 0 0 0 0 0 0 0 0 0 0 0 0 0 0 0 0
0 0 0 0 0 0 0 0 0 0 0 0 0 0 0 0 0 0 0 0 0 0 0 0 0 0 0 0 0 0 0 0 0 0 0 0 0 0 0 0 0 0 0 0
0 0 0 0 0 0 0 0 0 0 0 0 0 0 0 0 0 0 0 0 0 0 0 0 0 0 0 0 0 0 0 0 0 0 0 0 0 0 0 0 0 0 0 0
0 0 0 0 0 0 0 0 0 0 0 0 0 0 0 0 0 0 0 0 0 0 0 0 0 0 0 0 0 0 0 0 0 0 0 0 0 0 0 0 0 0 0 0
0 0 0 0 0 0 0 0 0 0 0 0 0 0 0 0 0 0 0 0 0 0 0 0 0 0 0 0 0 0 0 0 0 0 0 0 0 0 0 0 0 0 0 0
0 0 0 0 0 0 0 0 0 0 0 0 0 0 0 0 0 0 0 0 0 0 0 0 0 0 0 0 0 0 0 0 0 0 0 0 0 0 0 0 0 0 0 0
0 0 0 0 0 0 0 0 0 0 0 0 0 0 0 0 0 0 0 0 0 0 0 0 0 0 0 0 0 0 0 0 0 0 0 0 0 0 0 0 0 0 0 0
0 0 0 0 0 0 0 0 0 0 0 0 0 0 0 0 0 0 0 0 0 0 0 0 0 0 0 0 0 0 0 0 0 0 0 0 0 0 0 0 0 0 0 0
0 0 0 0 0 0 0 0 0 0 0 0 0 0 0 0 0 0 0 0 0 0 0 0 0 0 0 0 0 0 0 0 0 0 0 0 0 0 0 0 0 0 0 0
0 0 0 0 0 0 0 0 0 0 0 0 0 0 0 0 0 0 0 0 0 0 0 0 0 0 0 0 0 0 0 0 0 0 0 0 0 0 0 0 0 0 0 0
0 0 0 0 0 0 0 0 0 0 0 0 0 0 0 0 0 0 0 0 0 0 0 0 0 0 0 0 0 0 0 0 0 0 0 0 0 0 0 0 0 0 0 0
0 0 0 0 0 0 0 0 0 0 0 0 0 0 0 0 0 0 0 0 0 0 0 0 0 0 0 0 0 0 0 0 0 0 0 0 0 0 0 0 0 0 0 0
Wind_Speed
6 3 3 6 7 8 10 10 10 10 9 11 7 5 4 4 4 4 4 4 3 3 3 3 3 3 2 1 1 1 0 0 1 1 1 1 1 1 1 1 1 1 1 1
4 3 3 7 10 11 11 9 11 10 13 8 5 3 3 4 3 4 4 4 4 4 3 3 3 3 2 2 1 0 0 1 1 1 1 1 1 1 1 1 1 1 2 2
4 3 3 10 11 12 8 8 8 13 13 4 3 4 4 4 3 4 5 4 4 4 3 3 3 2 2 2 0 0 0 1 1 1 1 1 1 1 2 2 1 2 2 2
1 1 9 9 2 8 8 8 9 9 8 4 5 4 3 3 3 5 4 4 4 4 3 2 2 2 2 1 1 0 1 1 1 1 2 2 1 2 2 2 2 2 2 3
3 4 10 9 3 6 7 8 9 12 11 6 2 1 3 2 2 3 3 3 3 3 2 1 1 2 1 1 1 1 1 2 2 1 2 2 2 3 2 2 2 2 2 2
4 5 10 7 2 3 3 7 5 7 8 5 2 2 5 2 1 3 3 2 2 2 2 1 2 1 1 1 1 2 3 3 2 2 2 2 3 3 2 2 2 2 3 2
7 8 11 7 2 4 5 8 2 5 5 4 5 6 3 2 2 3 3 2 2 1 1 1 1 1 1 1 2 4 3 2 2 2 2 2 2 2 1 1 2 2 2 2
6 7 13 3 6 8 7 1 2 2 2 4 5 4 3 3 3 3 3 2 2 1 2 2 1 1 1 3 4 3 3 2 2 2 2 1 1 2 1 1 2 2 2 3
11 10 3 5 6 4 0 1 1 1 2 2 3 4 4 3 3 3 2 2 2 1 2 1 1 0 2 4 3 3 2 2 2 2 2 1 1 2 1 1 2 2 2 3
6 8 5 4 4 3 2 3 3 2 2 2 4 4 4 4 3 3 2 2 2 1 2 2 2 2 3 3 3 2 2 2 2 2 2 1 1 2 2 2 2 3 3 4
7 6 4 4 6 5 4 3 3 3 2 3 3 4 4 4 3 3 2 2 1 1 3 3 3 3 3 3 2 2 2 3 2 2 2 2 2 2 3 3 3 4 3 3
8 6 6 5 3 2 3 4 4 3 3 3 2 4 3 3 3 3 3 2 2 3 3 4 3 3 3 2 1 2 2 3 2 2 2 2 3 4 5 5 6 7 7 5
6 4 4 4 2 2 3 3 3 2 3 3 2 2 2 3 3 3 3 3 3 4 4 4 3 4 3 2 2 2 3 3 2 2 2 2 3 3 5 5 6 7 8 8
5 4 5 5 5 3 3 2 1 1 1 2 2 2 2 3 3 3 4 4 4 4 4 4 4 4 3 2 2 3 3 3 3 3 3 3 3 3 3 4 5 4 5 8
5 5 6 4 3 3 2 2 2 3 3 3 2 2 2 3 4 5 4 3 3 3 3 3 4 5 3 2 3 3 2 2 2 2 3 3 3 3 3 4 4 5 4 4
5 4 4 4 5 5 3 3 4 5 4 3 3 3 3 3 4 4 3 2 2 4 4 4 5 5 3 2 3 2 2 3 2 2 2 3 3 3 4 4 4 4 4 4
4 5 5 5 7 6 5 5 5 5 4 4 4 4 3 2 3 4 4 3 3 5 4 4 5 4 2 2 2 3 2 3 3 2 3 3 3 4 4 4 4 4 4 4
6 7 6 6 6 6 5 5 4 4 4 5 4 3 2 2 4 5 5 4 3 4 4 4 3 2 2 2 2 2 2 2 3 3 3 3 3 4 4 4 5 5 4 4
5 6 6 5 5 5 4 4 4 4 4 3 3 3 3 4 4 4 3 3 3 5 4 4 5 3 3 3 3 2 2 3 3 3 3 4 4 3 4 4 5 5 4 4
5 5 5 4 3 3 3 3 3 3 3 2 2 3 3 4 3 3 2 3 4 4 4 4 4 3 3 3 3 2 2 3 3 3 3 3 4 4 4 4 5 5 4 4
5 4 3 3 3 2 2 2 2 3 3 2 2 3 4 4 3 2 2 4 3 3 3 3 3 3 3 3 3 2 3 3 3 3 3 4 4 4 4 4 5 5 4 4
4 3 3 3 3 3 3 2 2 3 3 3 3 2 2 3 3 3 3 4 3 3 3 3 3 3 4 4 2 2 3 3 3 3 3 4 4 4 5 5 5 5 5 4
3 2 2 3 3 3 3 2 2 2 3 3 3 3 3 3 3 3 4 3 2 4 4 3 4 6 5 3 2 2 3 4 4 4 4 4 4 4 5 5 5 5 5 5
2 2 2 2 1 1 3 3 3 2 3 3 3 3 2 2 3 2 3 4 4 5 4 4 6 6 5 2 3 3 3 4 4 4 4 4 4 4 5 5 5 5 5 5
2 2 2 1 1 2 2 3 3 3 3 3 3 3 2 2 3 3 3 4 5 5 4 5 6 5 3 3 3 3 4 4 4 4 4 4 4 5 5 5 5 5 5 5
2 2 2 2 2 2 2 2 2 2 2 3 3 3 2 2 2 3 3 4 4 4 4 4 3 3 3 3 3 4 4 4 4 4 5 5 5 5 5 5 6 5 5 5
2 2 2 2 2 2 1 1 2 2 2 2 3 3 3 3 2 3 3 3 3 3 4 3 3 3 3 3 4 4 4 4 4 4 4 5 5 5 5 6 5 5 5 6
Wind_Direction
261 265 216 226 225 207 213 218 225 245 243 256 266 277 292 306 323 337 339 340 335 328 327 336 339 335 329 326 355 31 108 213 260 281 293 299 299 293 277 243 229 235 232 233
279 272 259 261 242 220 227 232 242 262 268 258 264 269 293 302 310 313 309 307 313 315 320 320 314 313 313 311 328 69 168 278 321 348 342 323 305 305 294 286 285 257 246 235
260 300 331 266 230 202 204 211 202 230 247 253 267 272 272 283 286 281 285 291 295 291 284 286 288 285 277 277 307 102 338 328 335 329 314 304 311 313 289 271 263 258 255 248
224 84 239 246 171 183 202 229 218 240 259 249 248 260 269 265 263 279 289 297 294 294 294 299 313 321 324 355 41 54 344 326 332 326 307 316 316 292 285 271 253 258 264 261
177 232 269 286 239 178 196 252 223 233 253 259 263 318 292 267 245 262 277 288 288 290 290 312 333 339 11 18 28 12 322 307 301 287 284 292 281 277 271 262 260 261 265 264
183 210 240 250 226 180 146 267 230 209 237 243 159 259 271 304 302 293 300 311 315 331 348 359 350 18 59 18 359 305 291 290 292 280 266 267 271 277 284 266 261 265 267 266
207 231 257 256 230 136 177 248 216 191 218 202 194 221 259 325 322 312 314 324 337 345 340 336 11 47 44 342 289 293 309 310 303 287 274 275 280 290 300 280 287 280 276 278
182 217 250 211 145 185 217 215 136 176 198 201 224 252 276 295 307 322 328 338 349 342 334 2 36 54 301 288 302 324 320 309 301 300 296 292 290 300 311 276 274 283 289 292
195 216 240 169 193 222 215 195 222 212 235 219 242 262 271 279 290 309 316 325 343 340 336 357 12 329 277 304 331 327 320 310 310 313 308 305 278 279 296 274 260 274 276 281
240 255 247 240 255 271 253 239 262 267 274 251 255 271 278 282 290 298 309 320 334 341 318 304 310 302 297 328 333 322 305 306 313 310 309 307 279 260 253 252 256 261 264 270
243 259 282 256 234 245 257 263 273 278 273 259 257 273 275 283 289 291 300 309 310 289 286 289 301 299 314 331 329 308 302 306 308 301 291 285 274 262 258 250 242 247 253 255
231 224 215 242 238 230 242 259 258 270 297 303 262 270 283 283 291 297 299 305 304 291 288 291 292 293 309 319 303 281 292 298 298 294 291 285 287 294 280 275 277 266 266 269
244 254 234 258 262 223 224 252 267 264 270 291 299 281 282 291 303 306 301 299 288 281 283 289 288 290 303 309 288 255 262 276 283 283 277 277 279 281 294 298 283 275 276 277
256 258 263 255 253 256 244 251 264 286 291 282 286 300 295 291 295 289 284 285 287 287 288 288 284 285 300 300 283 270 269 266 267 267 269 266 263 265 270 282 295 291 282 280
255 240 243 260 279 281 272 272 280 279 287 294 296 292 283 277 278 282 290 300 298 291 288 287 281 287 303 288 277 272 269 269 270 273 274 273 270 267 266 268 273 284 296 295
258 247 252 258 264 272 276 267 259 267 274 281 290 286 279 273 279 289 298 300 284 285 285 281 279 287 288 277 277 269 262 277 280 272 271 272 269 262 262 264 267 271 273 279
242 252 255 265 266 269 264 255 252 260 268 270 274 280 288 294 295 294 294 283 267 272 278 275 280 288 276 264 263 270 273 275 271 271 264 263 265 263 262 260 263 267 269 271
241 247 247 249 258 262 267 264 258 254 253 260 270 276 278 276 278 285 292 298 296 293 289 283 280 291 280 270 264 266 261 262 259 260 268 268 269 268 266 263 263 267 274 276
254 257 262 260 257 253 256 261 263 259 259 261 261 262 262 263 267 278 290 295 293 293 296 295 307 316 290 279 279 256 260 271 275 272 266 270 272 268 266 265 267 266 265 266
271 271 272 275 276 263 261 272 278 276 272 264 259 267 278 279 279 284 277 265 260 263 279 290 291 283 282 282 290 269 255 259 267 272 269 266 268 270 268 268 267 269 267 262
277 283 284 279 281 283 274 275 277 281 286 273 250 257 270 282 284 275 262 280 280 275 282 287 286 284 283 282 276 269 260 259 260 262 262 264 268 271 271 270 269 267 265 267
282 281 284 286 285 292 298 296 282 283 289 285 275 265 274 285 293 288 258 251 272 296 300 292 287 282 284 285 271 267 267 264 262 260 258 257 259 265 269 270 269 268 265 264
289 287 292 295 293 298 316 325 315 299 288 280 275 268 261 266 271 272 285 283 287 299 302 291 291 295 298 294 278 270 267 265 264 262 261 260 259 260 263 266 266 265 265 266
306 310 304 310 328 333 323 324 327 312 298 292 282 272 264 282 293 268 263 288 299 302 299 291 295 303 312 301 287 280 273 268 267 267 266 265 263 262 263 265 267 264 261 262
314 319 338 351 340 311 308 325 335 333 332 324 318 312 295 263 262 289 301 299 300 305 300 299 303 306 300 284 278 277 275 271 269 270 267 266 266 266 266 266 264 264 263 262
329 325 318 305 300 306 312 319 314 316 328 324 323 323 321 311 289 289 297 300 302 300 298 298 296 294 286 281 278 278 278 279 278 274 269 269 267 267 268 268 266 264 263 262
339 338 336 333 328 319 312 304 297 301 304 300 304 309 314 315 312 308 306 306 310 308 304 302 299 294 290 288 287 286 285 281 276 274 273 271 269 268 268 266 266 265 264 264